This is the latest recevied weather packets stored in our database for station/object K5MGY. If no packets are shown the sender has not sent any weather packets the latest 10 day(s).
| Time | Temp. | Humidity | Pressure | Rain* | Wind** | Luminosity | Snow |
|---|---|---|---|---|---|---|---|
| 1777673252 | 17.22° C | 59% | 1039.4 hPa | 0 mm | - | 67 W/m² | - |
| 1777672949 | 17.22° C | 59% | 1039.1 hPa | 0 mm | - | 70 W/m² | - |
| 1777672647 | 17.78° C | 59% | 1039.3 hPa | 0 mm | - | 73 W/m² | - |
| 1777672342 | 17.78° C | 59% | 1039.2 hPa | 0 mm | - | 79 W/m² | - |
| 1777672037 | 17.78° C | 59% | 1039.4 hPa | 0 mm | - | 92 W/m² | - |
| 1777671733 | 17.78° C | 59% | 1039.5 hPa | 0 mm | - | 80 W/m² | - |
| 1777671429 | 17.22° C | 57% | 1039.7 hPa | 0 mm | - | 81 W/m² | - |
| 1777671126 | 17.78° C | 56% | 1039.6 hPa | 0 mm | - | 65 W/m² | - |
| 1777670822 | 17.78° C | 56% | 1039.5 hPa | 0 mm | - | 61 W/m² | - |
| 1777670519 | 17.78° C | 56% | 1039.5 hPa | 0 mm | - | 71 W/m² | - |
| 1777670215 | 17.78° C | 55% | 1039.5 hPa | 0 mm | - | 71 W/m² | - |
| 1777669913 | 17.78° C | 54% | 1039.3 hPa | 0 mm | - | 74 W/m² | - |
| 1777669610 | 17.78° C | 54% | 1039.5 hPa | 0 mm | - | 95 W/m² | - |
| 1777669307 | 18.33° C | 52% | 1039.7 hPa | 0 mm | - | 105 W/m² | - |
| 1777669003 | 18.33° C | 51% | 1039.6 hPa | 0 mm | - | 140 W/m² | - |
| 1777668700 | 18.33° C | 52% | 1039.7 hPa | 0 mm | - | 170 W/m² | - |
| 1777668397 | 17.78° C | 52% | 1039.7 hPa | 0 mm | - | 214 W/m² | - |
| 1777668093 | 17.78° C | 53% | 1039.6 hPa | 0 mm | - | 190 W/m² | - |
| 1777667790 | 17.78° C | 56% | 1040.1 hPa | 0 mm | - | 121 W/m² | - |
| 1777667487 | 17.78° C | 56% | 1040.3 hPa | 0 mm | - | 120 W/m² | - |
| 1777667184 | 17.78° C | 55% | 1040.2 hPa | 0 mm | - | 158 W/m² | - |
| 1777666881 | 17.78° C | 53% | 1040.2 hPa | 0 mm | - | 142 W/m² | - |
| 1777666578 | 17.22° C | 56% | 1040.2 hPa | 0 mm | - | 165 W/m² | - |
| 1777666274 | 17.22° C | 60% | 1040.5 hPa | 0 mm | - | 155 W/m² | - |
| 1777665972 | 17.22° C | 61% | 1040.5 hPa | 0 mm | - | 105 W/m² | - |
* Rain latest hour (hover to see other rain measurements)
** Current wind speed in m/s (hover to see current wind gust speed)